Time,TemperatureF,DewpointF,PressureIn,WindDirection,WindDirectionDegrees,WindSpeedMPH,WindSpeedGustMPH,Humidity,HourlyPrecipIn,Conditions,Clouds,dailyrainin,SoftwareType,DateUTC
2017-08-21 00:01:00,81.9,57.2,29.85,NNE,13,0.0,0.0,43,0.00,,,0.00,Wunderground v.1.15,2017-08-21 07:01:00,
2017-08-21 00:07:00,81.8,57.1,29.85,NNE,13,0.0,0.0,43,0.00,,,0.00,Wunderground v.1.15,2017-08-21 07:07:00,
2017-08-21 00:13:00,81.7,57.7,29.85,NNE,13,0.0,0.0,44,0.00,,,0.00,Wunderground v.1.15,2017-08-21 07:13:00,
2017-08-21 00:18:00,81.6,57.6,29.85,NNE,13,0.0,0.0,44,0.00,,,0.00,Wunderground v.1.15,2017-08-21 07:18:00,
2017-08-21 00:23:00,81.5,58.1,29.86,NNE,13,0.0,0.0,45,0.00,,,0.00,Wunderground v.1.15,2017-08-21 07:23:00,
2017-08-21 00:29:00,81.3,57.9,29.85,NNE,13,0.0,0.0,45,0.00,,,0.00,Wunderground v.1.15,2017-08-21 07:29:00,
2017-08-21 00:35:00,81.0,58.9,29.85,NNE,13,0.0,0.0,47,0.00,,,0.00,Wunderground v.1.15,2017-08-21 07:35:00,
2017-08-21 00:40:00,80.7,58.0,29.85,NNE,13,0.0,0.0,46,0.00,,,0.00,Wunderground v.1.15,2017-08-21 07:40:00,
2017-08-21 00:46:00,80.3,58.2,29.85,NNE,13,0.0,0.0,47,0.00,,,0.00,Wunderground v.1.15,2017-08-21 07:46:00,
2017-08-21 00:52:00,79.9,57.9,29.85,NNE,13,0.0,0.0,47,0.00,,,0.00,Wunderground v.1.15,2017-08-21 07:52:00,
2017-08-21 00:58:00,79.5,57.5,29.86,NNE,13,0.0,0.0,47,0.00,,,0.00,Wunderground v.1.15,2017-08-21 07:58:00,
2017-08-21 01:03:00,79.3,57.3,29.86,NNE,13,0.0,0.0,47,0.00,,,0.00,Wunderground v.1.15,2017-08-21 08:03:00,
2017-08-21 01:09:00,79.0,57.6,29.86,NNE,13,0.0,0.0,48,0.00,,,0.00,Wunderground v.1.15,2017-08-21 08:09:00,
2017-08-21 01:15:00,78.8,57.4,29.85,NNE,13,0.0,0.0,48,0.00,,,0.00,Wunderground v.1.15,2017-08-21 08:15:00,
2017-08-21 01:20:00,78.6,57.3,29.85,NNE,13,0.0,0.0,48,0.00,,,0.00,Wunderground v.1.15,2017-08-21 08:20:00,
2017-08-21 01:31:00,78.2,57.5,29.85,NNE,13,0.0,0.0,49,0.00,,,0.00,Wunderground v.1.15,2017-08-21 08:31:00,
2017-08-21 01:36:00,78.1,57.9,29.85,NNE,13,0.0,0.0,50,0.00,,,0.00,Wunderground v.1.15,2017-08-21 08:36:00,
2017-08-21 01:42:00,78.0,58.4,29.85,NNE,13,0.0,0.0,51,0.00,,,0.00,Wunderground v.1.15,2017-08-21 08:42:00,
2017-08-21 01:47:00,77.9,57.8,29.85,NNE,13,0.0,0.0,50,0.00,,,0.00,Wunderground v.1.15,2017-08-21 08:47:00,
2017-08-21 01:52:00,77.8,57.7,29.85,NNE,13,0.0,0.0,50,0.00,,,0.00,Wunderground v.1.15,2017-08-21 08:52:00,
2017-08-21 01:58:00,77.7,58.1,29.85,NNE,13,0.0,0.0,51,0.00,,,0.00,Wunderground v.1.15,2017-08-21 08:58:00,
2017-08-21 02:03:00,77.5,58.5,29.85,NNE,13,0.0,0.0,52,0.00,,,0.00,Wunderground v.1.15,2017-08-21 09:03:00,
2017-08-21 02:08:00,77.3,57.8,29.85,NNE,13,0.0,0.0,51,0.00,,,0.00,Wunderground v.1.15,2017-08-21 09:08:00,
2017-08-21 02:13:00,77.2,58.2,29.85,NNE,13,0.0,0.0,52,0.00,,,0.00,Wunderground v.1.15,2017-08-21 09:13:00,
2017-08-21 02:18:00,77.0,58.0,29.85,NNE,13,0.0,0.0,52,0.00,,,0.00,Wunderground v.1.15,2017-08-21 09:18:00,
2017-08-21 02:23:00,76.9,57.9,29.85,NNE,13,0.0,0.0,52,0.00,,,0.00,Wunderground v.1.15,2017-08-21 09:23:00,
2017-08-21 02:28:00,76.7,58.3,29.85,NNE,13,0.0,0.0,53,0.00,,,0.00,Wunderground v.1.15,2017-08-21 09:28:00,
2017-08-21 02:33:00,76.6,58.2,29.85,NNE,13,0.0,0.0,53,0.00,,,0.00,Wunderground v.1.15,2017-08-21 09:33:00,
2017-08-21 02:38:00,76.4,58.0,29.85,NNE,13,0.0,0.0,53,0.00,,,0.00,Wunderground v.1.15,2017-08-21 09:38:00,
2017-08-21 02:43:00,76.2,57.8,29.85,NNE,13,0.0,0.0,53,0.00,,,0.00,Wunderground v.1.15,2017-08-21 09:43:00,
2017-08-21 02:48:00,76.1,58.2,29.85,NNE,13,0.0,0.0,54,0.00,,,0.00,Wunderground v.1.15,2017-08-21 09:48:00,
2017-08-21 02:53:00,76.0,58.2,29.85,NNE,13,0.0,0.0,54,0.00,,,0.00,Wunderground v.1.15,2017-08-21 09:53:00,
2017-08-21 02:58:00,75.9,58.1,29.86,NNE,13,0.0,0.0,54,0.00,,,0.00,Wunderground v.1.15,2017-08-21 09:58:00,
2017-08-21 03:03:00,75.8,58.5,29.85,NNE,13,0.0,0.0,55,0.00,,,0.00,Wunderground v.1.15,2017-08-21 10:03:00,
2017-08-21 03:08:00,75.6,58.3,29.86,NNE,13,0.0,0.0,55,0.00,,,0.00,Wunderground v.1.15,2017-08-21 10:08:00,
2017-08-21 03:13:00,75.5,58.7,29.86,NNE,13,0.0,0.0,56,0.00,,,0.00,Wunderground v.1.15,2017-08-21 10:13:00,
2017-08-21 03:18:00,75.3,58.5,29.86,NNE,13,0.0,0.0,56,0.00,,,0.00,Wunderground v.1.15,2017-08-21 10:18:00,
2017-08-21 03:23:00,75.3,58.5,29.86,NNE,13,0.0,0.0,56,0.00,,,0.00,Wunderground v.1.15,2017-08-21 10:23:00,
2017-08-21 03:28:00,75.2,58.4,29.86,NNE,13,0.0,0.0,56,0.00,,,0.00,Wunderground v.1.15,2017-08-21 10:28:00,
2017-08-21 03:33:00,75.1,58.3,29.86,NNE,13,0.0,0.0,56,0.00,,,0.00,Wunderground v.1.15,2017-08-21 10:33:00,
2017-08-21 03:38:00,75.1,58.3,29.86,NNE,13,0.0,0.0,56,0.00,,,0.00,Wunderground v.1.15,2017-08-21 10:38:00,
2017-08-21 03:43:00,75.0,58.2,29.86,NNE,13,0.0,0.0,56,0.00,,,0.00,Wunderground v.1.15,2017-08-21 10:43:00,
2017-08-21 03:49:00,75.0,58.2,29.86,NNE,13,0.0,0.0,56,0.00,,,0.00,Wunderground v.1.15,2017-08-21 10:49:00,
2017-08-21 03:54:00,75.0,58.2,29.86,NNE,13,0.0,0.0,56,0.00,,,0.00,Wunderground v.1.15,2017-08-21 10:54:00,
2017-08-21 03:59:00,74.9,58.6,29.86,NNE,13,0.0,0.0,57,0.00,,,0.00,Wunderground v.1.15,2017-08-21 10:59:00,
2017-08-21 04:04:00,74.9,58.6,29.86,NNE,13,0.0,0.0,57,0.00,,,0.00,Wunderground v.1.15,2017-08-21 11:04:00,
2017-08-21 04:09:00,74.9,58.6,29.86,NNE,13,0.0,0.0,57,0.00,,,0.00,Wunderground v.1.15,2017-08-21 11:09:00,
2017-08-21 04:14:00,74.9,58.6,29.86,NNE,13,0.0,0.0,57,0.00,,,0.00,Wunderground v.1.15,2017-08-21 11:14:00,
2017-08-21 04:19:00,74.9,58.6,29.86,NNE,13,0.0,0.0,57,0.00,,,0.00,Wunderground v.1.15,2017-08-21 11:19:00,
2017-08-21 04:24:00,74.9,58.6,29.86,NNE,13,0.0,0.0,57,0.00,,,0.00,Wunderground v.1.15,2017-08-21 11:24:00,
2017-08-21 04:25:00,74.9,58.6,29.86,NNE,13,0.0,0.0,57,0.00,,,0.00,Wunderground v.1.15,2017-08-21 11:25:00,
2017-08-21 04:30:00,74.9,58.6,29.86,NNE,13,0.0,0.0,57,0.00,,,0.00,Wunderground v.1.15,2017-08-21 11:30:00,
2017-08-21 04:35:00,74.8,58.5,29.86,NNE,13,0.0,0.0,57,0.00,,,0.00,Wunderground v.1.15,2017-08-21 11:35:00,
2017-08-21 04:41:00,74.8,58.5,29.86,NNE,13,0.0,0.0,57,0.00,,,0.00,Wunderground v.1.15,2017-08-21 11:41:00,
2017-08-21 04:46:00,74.8,59.0,29.86,NNE,13,0.0,0.0,58,0.00,,,0.00,Wunderground v.1.15,2017-08-21 11:46:00,
2017-08-21 04:51:00,74.7,59.4,29.86,NNE,13,0.0,0.0,59,0.00,,,0.00,Wunderground v.1.15,2017-08-21 11:51:00,
2017-08-21 04:56:00,74.6,58.8,29.86,NNE,13,0.0,0.0,58,0.00,,,0.00,Wunderground v.1.15,2017-08-21 11:56:00,
2017-08-21 05:01:00,74.5,59.2,29.86,NNE,13,0.0,0.0,59,0.00,,,0.00,Wunderground v.1.15,2017-08-21 12:01:00,
2017-08-21 05:06:00,74.4,59.1,29.86,NNE,13,0.0,0.0,59,0.00,,,0.00,Wunderground v.1.15,2017-08-21 12:06:00,
2017-08-21 05:11:00,74.3,59.0,29.87,NNE,13,0.0,0.0,59,0.00,,,0.00,Wunderground v.1.15,2017-08-21 12:11:00,
2017-08-21 05:16:00,74.1,58.9,29.87,NNE,13,0.0,0.0,59,0.00,,,0.00,Wunderground v.1.15,2017-08-21 12:16:00,
2017-08-21 05:21:00,74.0,58.8,29.87,NNE,13,0.0,0.0,59,0.00,,,0.00,Wunderground v.1.15,2017-08-21 12:21:00,
2017-08-21 05:26:00,73.8,59.0,29.87,NNE,13,0.0,0.0,60,0.00,,,0.00,Wunderground v.1.15,2017-08-21 12:26:00,
2017-08-21 05:31:00,73.6,58.9,29.87,NNE,13,0.0,0.0,60,0.00,,,0.00,Wunderground v.1.15,2017-08-21 12:31:00,
2017-08-21 05:36:00,73.4,58.7,29.87,NNE,13,0.0,0.0,60,0.00,,,0.00,Wunderground v.1.15,2017-08-21 12:36:00,
2017-08-21 05:41:00,73.3,58.6,29.87,NNE,13,0.0,0.0,60,0.00,,,0.00,Wunderground v.1.15,2017-08-21 12:41:00,
2017-08-21 05:46:00,73.1,58.8,29.87,NNE,13,0.0,0.0,61,0.00,,,0.00,Wunderground v.1.15,2017-08-21 12:46:00,
2017-08-21 05:51:00,72.9,58.7,29.87,NNE,13,0.0,0.0,61,0.00,,,0.00,Wunderground v.1.15,2017-08-21 12:51:00,
2017-08-21 05:56:00,72.7,58.5,29.88,NNE,13,0.0,0.0,61,0.00,,,0.00,Wunderground v.1.15,2017-08-21 12:56:00,
2017-08-21 06:01:00,72.6,58.8,29.88,NNE,13,0.0,0.0,62,0.00,,,0.00,Wunderground v.1.15,2017-08-21 13:01:00,
2017-08-21 06:06:00,72.5,58.7,29.88,NNE,13,0.0,0.0,62,0.00,,,0.00,Wunderground v.1.15,2017-08-21 13:06:00,
2017-08-21 06:11:00,72.5,59.6,29.88,NNE,13,0.0,0.0,64,0.00,,,0.00,Wunderground v.1.15,2017-08-21 13:11:00,
2017-08-21 06:16:00,72.5,59.6,29.89,NNE,13,0.0,0.0,64,0.00,,,0.00,Wunderground v.1.15,2017-08-21 13:16:00,
2017-08-21 06:21:00,72.5,59.6,29.89,NNE,13,0.0,0.0,64,0.00,,,0.00,Wunderground v.1.15,2017-08-21 13:21:00,
2017-08-21 06:27:00,72.5,59.6,29.89,NNE,13,0.0,0.0,64,0.00,,,0.00,Wunderground v.1.15,2017-08-21 13:27:00,
2017-08-21 06:32:00,72.6,59.7,29.89,NNE,13,0.0,0.0,64,0.00,,,0.00,Wunderground v.1.15,2017-08-21 13:32:00,
2017-08-21 06:37:00,72.8,60.3,29.89,NNE,13,0.0,0.0,65,0.00,,,0.00,Wunderground v.1.15,2017-08-21 13:37:00,
2017-08-21 06:42:00,73.1,61.1,29.90,NNE,13,0.0,0.0,66,0.00,,,0.00,Wunderground v.1.15,2017-08-21 13:42:00,
2017-08-21 06:47:00,73.8,60.9,29.90,NNE,13,0.0,0.0,64,0.00,,,0.00,Wunderground v.1.15,2017-08-21 13:47:00,
2017-08-21 06:52:00,74.7,61.3,29.90,NNE,14,0.0,0.0,63,0.00,,,0.00,Wunderground v.1.15,2017-08-21 13:52:00,
2017-08-21 06:57:00,75.3,61.4,29.90,North,5,0.0,0.0,62,0.00,,,0.00,Wunderground v.1.15,2017-08-21 13:57:00,
2017-08-21 07:02:00,76.0,61.1,29.91,North,5,0.0,0.0,60,0.00,,,0.00,Wunderground v.1.15,2017-08-21 14:02:00,
2017-08-21 07:07:00,76.9,61.0,29.91,North,5,0.0,0.0,58,0.00,,,0.00,Wunderground v.1.15,2017-08-21 14:07:00,
2017-08-21 07:12:00,77.5,61.6,29.91,North,5,0.0,0.0,58,0.00,,,0.00,Wunderground v.1.15,2017-08-21 14:12:00,
2017-08-21 07:17:00,78.2,61.7,29.91,North,5,0.0,2.0,57,0.00,,,0.00,Wunderground v.1.15,2017-08-21 14:17:00,
2017-08-21 07:22:00,78.8,61.8,29.91,North,5,0.0,0.0,56,0.00,,,0.00,Wunderground v.1.15,2017-08-21 14:22:00,
2017-08-21 07:27:00,79.4,61.3,29.91,North,5,0.0,2.0,54,0.00,,,0.00,Wunderground v.1.15,2017-08-21 14:27:00,
2017-08-21 07:32:00,79.9,61.2,29.91,North,5,0.0,0.0,53,0.00,,,0.00,Wunderground v.1.15,2017-08-21 14:32:00,
2017-08-21 07:37:00,80.5,61.8,29.91,North,5,0.0,1.0,53,0.00,,,0.00,Wunderground v.1.15,2017-08-21 14:37:00,
2017-08-21 07:42:00,81.0,61.2,29.91,North,5,0.0,0.0,51,0.00,,,0.00,Wunderground v.1.15,2017-08-21 14:42:00,
2017-08-21 07:47:00,81.6,61.7,29.91,North,5,0.0,3.0,51,0.00,,,0.00,Wunderground v.1.15,2017-08-21 14:47:00,
2017-08-21 07:52:00,82.1,62.7,29.91,North,5,0.0,0.0,52,0.00,,,0.00,Wunderground v.1.15,2017-08-21 14:52:00,
2017-08-21 07:57:00,82.6,61.5,29.91,North,5,0.0,0.0,49,0.00,,,0.00,Wunderground v.1.15,2017-08-21 14:57:00,
2017-08-21 08:02:00,83.2,60.9,29.91,North,5,0.0,3.0,47,0.00,,,0.00,Wunderground v.1.15,2017-08-21 15:02:00,
2017-08-21 08:07:00,83.6,60.6,29.91,North,5,2.0,3.0,46,0.00,,,0.00,Wunderground v.1.15,2017-08-21 15:07:00,
2017-08-21 08:12:00,83.8,61.4,29.91,North,5,0.0,2.0,47,0.00,,,0.00,Wunderground v.1.15,2017-08-21 15:12:00,
2017-08-21 08:18:00,84.1,61.1,29.91,North,5,0.0,3.0,46,0.00,,,0.00,Wunderground v.1.15,2017-08-21 15:18:00,
2017-08-21 08:23:00,84.6,61.5,29.91,North,9,0.0,3.0,46,0.00,,,0.00,Wunderground v.1.15,2017-08-21 15:23:00,
2017-08-21 08:28:00,85.0,61.3,29.91,North,9,0.0,4.0,45,0.00,,,0.00,Wunderground v.1.15,2017-08-21 15:28:00,
2017-08-21 08:33:00,85.3,61.6,29.91,NNE,12,2.0,5.0,45,0.00,,,0.00,Wunderground v.1.15,2017-08-21 15:33:00,
2017-08-21 08:38:00,85.7,61.3,29.91,NNE,12,0.0,5.0,44,0.00,,,0.00,Wunderground v.1.15,2017-08-21 15:38:00,
2017-08-21 08:43:00,86.0,61.5,29.91,NNE,12,0.0,3.0,44,0.00,,,0.00,Wunderground v.1.15,2017-08-21 15:43:00,
2017-08-21 08:48:00,86.4,60.6,29.92,NNE,12,2.0,3.0,42,0.00,,,0.00,Wunderground v.1.15,2017-08-21 15:48:00,
2017-08-21 08:53:00,86.7,61.5,29.91,NNE,12,3.0,3.0,43,0.00,,,0.00,Wunderground v.1.15,2017-08-21 15:53:00,
2017-08-21 08:58:00,87.2,62.0,29.92,NNE,12,0.0,3.0,43,0.00,,,0.00,Wunderground v.1.15,2017-08-21 15:58:00,
2017-08-21 09:03:00,87.5,60.2,29.92,NNE,12,2.0,4.0,40,0.00,,,0.00,Wunderground v.1.15,2017-08-21 16:03:00,
2017-08-21 09:08:00,87.9,59.8,29.92,NNE,12,0.0,4.0,39,0.00,,,0.00,Wunderground v.1.15,2017-08-21 16:08:00,
2017-08-21 09:13:00,88.3,59.5,29.92,NNE,12,0.0,3.0,38,0.00,,,0.00,Wunderground v.1.15,2017-08-21 16:13:00,
2017-08-21 09:18:00,88.7,59.8,29.92,NNE,12,1.0,3.0,38,0.00,,,0.00,Wunderground v.1.15,2017-08-21 16:18:00,
2017-08-21 09:23:00,89.0,57.8,29.92,NNE,12,0.0,3.0,35,0.00,,,0.00,Wunderground v.1.15,2017-08-21 16:23:00,
2017-08-21 09:28:00,89.4,57.3,29.92,NNE,12,0.0,3.0,34,0.00,,,0.00,Wunderground v.1.15,2017-08-21 16:28:00,
2017-08-21 09:33:00,89.9,59.4,29.92,NNE,12,0.0,4.0,36,0.00,,,0.00,Wunderground v.1.15,2017-08-21 16:33:00,
2017-08-21 09:38:00,90.3,59.7,29.92,NNE,12,0.0,4.0,36,0.00,,,0.00,Wunderground v.1.15,2017-08-21 16:38:00,
2017-08-21 09:43:00,90.8,59.4,29.92,NNE,15,0.0,3.0,35,0.00,,,0.00,Wunderground v.1.15,2017-08-21 16:43:00,
2017-08-21 09:48:00,91.1,58.0,29.92,NNE,15,0.0,3.0,33,0.00,,,0.00,Wunderground v.1.15,2017-08-21 16:48:00,
2017-08-21 09:53:00,91.4,59.9,29.92,NNE,15,0.0,0.0,35,0.00,,,0.00,Wunderground v.1.15,2017-08-21 16:53:00,
2017-08-21 09:58:00,91.5,57.5,29.92,NNE,15,0.0,4.0,32,0.00,,,0.00,Wunderground v.1.15,2017-08-21 16:58:00,
2017-08-21 10:04:00,91.5,56.6,29.92,NNE,15,0.0,2.0,31,0.00,,,0.00,Wunderground v.1.15,2017-08-21 17:04:00,
2017-08-21 10:09:00,91.3,56.4,29.92,NNE,15,0.0,2.0,31,0.00,,,0.00,Wunderground v.1.15,2017-08-21 17:09:00,
2017-08-21 10:14:00,91.5,59.2,29.92,NNE,15,0.0,0.0,34,0.00,,,0.00,Wunderground v.1.15,2017-08-21 17:14:00,
2017-08-21 10:19:00,91.3,55.5,29.92,NNE,15,0.0,2.0,30,0.00,,,0.00,Wunderground v.1.15,2017-08-21 17:19:00,
2017-08-21 10:24:00,91.2,54.5,29.92,NNE,15,0.0,0.0,29,0.00,,,0.00,Wunderground v.1.15,2017-08-21 17:24:00,
2017-08-21 10:29:00,91.0,55.3,29.92,NNE,15,0.0,4.0,30,0.00,,,0.00,Wunderground v.1.15,2017-08-21 17:29:00,
2017-08-21 10:34:00,90.4,50.8,29.92,NNE,15,0.0,5.0,26,0.00,,,0.00,Wunderground v.1.15,2017-08-21 17:34:00,